Location: Brno
(49.2000°N, 16.6330°E)
Time: 15:01:51
(UTC+02:00)

Iridium 2 - Visible Passes

Search period start: 06 May 2016 00:00
Search period end: 16 May 2016 00:00
Orbit: 513 x 528 km, 85.5° (Epoch: 05 May)

Date Brightness Start Highest point End Pass type
(mag) Time Alt. Az. Time Alt. Az. Time Alt. Az.
06 May 3.8 04:16:36 10° S 04:20:27 79° E 04:24:18 10° N visible
07 May 4.1 04:03:13 10° S 04:07:02 65° E 04:10:51 10° N visible
08 May 4.4 03:49:52 10° SSE 03:53:37 53° E 03:57:23 10° NNE visible
09 May 4.8 03:36:33 10° SSE 03:40:12 44° E 03:43:53 10° NNE visible
10 May 5.1 03:23:15 10° SSE 03:26:48 37° E 03:30:21 10° NNE visible
11 May 5.4 03:09:59 10° SSE 03:13:23 31° E 03:16:47 10° NNE visible
12 May 5.6 02:56:45 10° SE 02:59:59 26° E 03:03:12 10° NNE visible
12 May 4.9 04:32:06 10° SW 04:35:23 27° WNW 04:38:42 10° NNW visible
13 May 5.9 02:43:35 10° SE 02:46:35 22° E 02:49:35 10° NNE visible
13 May 4.6 04:18:28 10° SW 04:21:53 32° WNW 04:25:22 10° NNW visible
14 May 6.1 02:30:28 10° SE 02:33:10 19° E 02:35:54 10° NE visible
14 May 4.4 04:05:14 13° SW 04:08:24 38° W 04:11:59 10° N visible
15 May 6.3 02:17:24 10° ESE 02:19:47 16° E 02:22:09 10° NE visible
15 May 4.1 03:51:59 15° SSW 03:54:53 45° W 03:58:35 10° N visible
